User: anonymous   Login
Location: Unspecified
(0.0000°N, 0.0000°E)
Time: 01:06:58
(UTC+00:00)
Language:

CICERO 6 - Orbit

View from above orbital plane
View from above orbital plane
View from above satellite
View from above satellite

Ground track
Ground track

The orbit data is extracted from the following two-line orbital elements,

1 42793U 17036AE  21023.70399434  .00001025  00000-0  45582-4 0  9995
2 42793  97.2708  77.3186 0009326 341.9893  18.1013 15.23649092199395
Epoch (UTC): 23 January 2021 16:53:45
Eccentricity: 0.0009326
inclination: 97.2708°
perigee height: 488 km
apogee height: 501 km
right ascension of ascending node: 77.3186°
argument of perigee: 341.9893°
revolutions per day: 15.23649092
mean anomaly at epoch: 18.1013°
orbit number at epoch: 19939

The dashed part of the orbit path shows where the satellite is in the earth's shadow,  

DLR